Year,Month,Day,Hour,Minute,Value (Times are PST for temperature in C)
2009,03,30,13,15,7.60
2009,03,30,13,16,7.60
2009,03,30,13,17,7.60
2009,03,30,13,18,7.60
2009,03,30,13,19,7.60
2009,03,30,13,20,7.60
2009,03,30,13,21,7.60
2009,03,30,13,22,7.60
2009,03,30,13,24,7.50
2009,03,30,13,25,7.40
2009,03,30,13,26,7.40
2009,03,30,13,27,7.40
2009,03,30,13,28,7.40
2009,03,30,13,29,7.40
2009,03,30,13,30,7.40
2009,03,30,13,31,7.40
2009,03,30,13,32,7.40
2009,03,30,13,33,7.40
2009,03,30,13,34,7.40
2009,03,30,13,35,7.40
2009,03,30,13,36,7.40
2009,03,30,13,37,7.40
2009,03,30,13,38,7.40
2009,03,30,13,39,7.40
2009,03,30,13,40,7.40
2009,03,30,13,41,7.40
2009,03,30,13,42,7.40
2009,03,30,13,43,7.40
2009,03,30,13,44,7.40
2009,03,30,13,45,7.40
2009,03,30,13,46,7.40
2009,03,30,13,47,7.30
2009,03,30,13,48,7.30
2009,03,30,13,49,7.30
2009,03,30,13,50,7.30
2009,03,30,13,51,7.30
2009,03,30,13,52,7.30
2009,03,30,13,53,7.30
2009,03,30,13,54,7.30
2009,03,30,13,55,7.30
2009,03,30,13,56,7.30
2009,03,30,13,57,7.30
2009,03,30,13,58,7.30
2009,03,30,13,59,7.30
2009,03,30,14,00,7.30
2009,03,30,14,01,7.30
2009,03,30,14,02,7.30
2009,03,30,14,03,7.40
2009,03,30,14,04,7.40
2009,03,30,14,05,7.40
2009,03,30,14,06,7.40
2009,03,30,14,07,7.40
2009,03,30,14,08,7.40
2009,03,30,14,09,7.50
2009,03,30,14,10,7.50
2009,03,30,14,11,7.50
2009,03,30,14,12,7.50
2009,03,30,14,13,7.60
2009,03,30,14,14,7.60
2009,03,30,14,15,7.60
2009,03,30,14,16,7.60
2009,03,30,14,17,7.60
2009,03,30,14,18,7.60
2009,03,30,14,19,7.60
2009,03,30,14,20,7.60
2009,03,30,14,21,7.60
2009,03,30,14,22,7.60
2009,03,30,14,23,7.60
2009,03,30,14,24,7.70
2009,03,30,14,25,7.70
2009,03,30,14,26,7.70
2009,03,30,14,27,7.70
2009,03,30,14,28,7.70
2009,03,30,14,29,7.70
2009,03,30,14,30,7.70
2009,03,30,14,31,7.70
2009,03,30,14,32,7.70
2009,03,30,14,33,7.70
2009,03,30,14,34,7.70
2009,03,30,14,35,7.70
2009,03,30,14,36,7.70
2009,03,30,14,37,7.70
2009,03,30,14,38,7.70
2009,03,30,14,39,7.70
2009,03,30,14,40,7.70
2009,03,30,14,41,7.70
2009,03,30,14,42,7.70
2009,03,30,14,43,7.70
2009,03,30,14,44,7.70
2009,03,30,14,45,7.60
2009,03,30,14,46,7.60
2009,03,30,14,47,7.60
2009,03,30,14,48,7.50
2009,03,30,14,49,7.50
2009,03,30,14,50,7.50
2009,03,30,14,51,7.50
2009,03,30,14,52,7.40
2009,03,30,14,53,7.50
2009,03,30,14,54,7.50
2009,03,30,14,55,7.50
2009,03,30,14,56,7.50
2009,03,30,14,57,7.50
2009,03,30,14,58,7.50
2009,03,30,14,59,7.50
2009,03,30,15,00,7.50
2009,03,30,15,01,7.50
2009,03,30,15,02,7.60
2009,03,30,15,03,7.60
2009,03,30,15,04,7.60
2009,03,30,15,05,7.60
2009,03,30,15,06,7.60
2009,03,30,15,07,7.60
2009,03,30,15,08,7.60
2009,03,30,15,09,7.70
2009,03,30,15,10,7.70
2009,03,30,15,11,7.70
2009,03,30,15,12,7.70
2009,03,30,15,13,7.70
2009,03,30,15,14,7.70
2009,03,30,15,15,7.70
2009,03,30,15,16,7.70
2009,03,30,15,17,7.70
2009,03,30,15,18,7.70
2009,03,30,15,19,7.70
2009,03,30,15,20,7.70
2009,03,30,15,21,7.70
2009,03,30,15,22,7.70
2009,03,30,15,23,7.70
2009,03,30,15,24,7.60
2009,03,30,15,25,7.60
2009,03,30,15,26,7.60
2009,03,30,15,27,7.60
2009,03,30,15,28,7.60
2009,03,30,15,29,7.60
2009,03,30,15,30,7.60
2009,03,30,15,31,7.60
2009,03,30,15,32,7.60
2009,03,30,15,33,7.60
2009,03,30,15,34,7.70
2009,03,30,15,35,7.70
2009,03,30,15,36,7.70
2009,03,30,15,37,7.70
2009,03,30,15,38,7.80
2009,03,30,15,39,7.80
2009,03,30,15,40,7.80
2009,03,30,15,41,7.80
2009,03,30,15,42,7.80
2009,03,30,15,43,7.80
2009,03,30,15,44,7.70
2009,03,30,15,45,7.70
2009,03,30,15,46,7.70
2009,03,30,15,47,7.70
2009,03,30,15,48,7.70
2009,03,30,15,49,7.70
2009,03,30,15,50,7.70
2009,03,30,15,51,7.70
2009,03,30,15,52,7.70
2009,03,30,15,53,7.70
2009,03,30,15,54,7.70
2009,03,30,15,55,7.70
2009,03,30,15,56,7.70
2009,03,30,15,57,7.70
2009,03,30,15,58,7.70
2009,03,30,15,59,7.70
2009,03,30,16,00,7.70
2009,03,30,16,01,7.70
2009,03,30,16,02,7.70
2009,03,30,16,03,7.70
2009,03,30,16,04,7.70
2009,03,30,16,05,7.70
2009,03,30,16,06,7.70
2009,03,30,16,07,7.70
2009,03,30,16,08,7.70
2009,03,30,16,09,7.70
2009,03,30,16,10,7.70
2009,03,30,16,11,7.70
2009,03,30,16,12,7.70
2009,03,30,16,13,7.80
2009,03,30,16,14,7.80
2009,03,30,16,15,7.80
2009,03,30,16,16,7.80
2009,03,30,16,17,7.80
2009,03,30,16,18,7.80
2009,03,30,16,19,7.80
2009,03,30,16,20,7.80
2009,03,30,16,21,7.80
2009,03,30,16,22,7.70
2009,03,30,16,23,7.70
2009,03,30,16,24,7.70
2009,03,30,16,25,7.70
2009,03,30,16,26,7.70
2009,03,30,16,27,7.70
2009,03,30,16,28,7.70
2009,03,30,16,29,7.70
2009,03,30,16,30,7.80
2009,03,30,16,31,7.80
2009,03,30,16,32,7.80
2009,03,30,16,33,7.80
2009,03,30,16,34,7.80
2009,03,30,16,35,7.80
2009,03,30,16,36,7.80
2009,03,30,16,37,7.80
2009,03,30,16,38,7.80
2009,03,30,16,39,7.80
2009,03,30,16,40,7.80
2009,03,30,16,41,7.80
2009,03,30,16,42,7.70
2009,03,30,16,43,7.70
2009,03,30,16,44,7.70
2009,03,30,16,45,7.70
2009,03,30,16,46,7.60
2009,03,30,16,47,7.60
2009,03,30,16,48,7.60
2009,03,30,16,49,7.60
2009,03,30,16,50,7.60
2009,03,30,16,51,7.60
2009,03,30,16,52,7.60
2009,03,30,16,53,7.60
2009,03,30,16,54,7.60
2009,03,30,16,55,7.60
2009,03,30,16,56,7.60
2009,03,30,16,57,7.60
2009,03,30,16,58,7.60
2009,03,30,16,59,7.60
2009,03,30,17,00,7.60
2009,03,30,17,01,7.60
2009,03,30,17,02,7.60
2009,03,30,17,03,7.60
2009,03,30,17,04,7.60
2009,03,30,17,05,7.60
2009,03,30,17,06,7.60
2009,03,30,17,07,7.60
2009,03,30,17,08,7.60
2009,03,30,17,09,7.60
2009,03,30,17,10,7.70
2009,03,30,17,11,7.70
2009,03,30,17,12,7.70
2009,03,30,17,13,7.70
2009,03,30,17,14,7.70
2009,03,30,17,15,7.70
2009,03,30,17,16,7.70
2009,03,30,17,17,7.70
2009,03,30,17,18,7.70
2009,03,30,17,19,7.70
2009,03,30,17,20,7.70
2009,03,30,17,21,7.60
2009,03,30,17,22,7.60
2009,03,30,17,23,7.60
2009,03,30,17,24,7.60
2009,03,30,17,25,7.70
2009,03,30,17,26,7.70
2009,03,30,17,27,7.60
2009,03,30,17,28,7.60
2009,03,30,17,29,7.60
2009,03,30,17,30,7.60
2009,03,30,17,31,7.60
2009,03,30,17,32,7.70
2009,03,30,17,33,7.70
2009,03,30,17,34,7.70
2009,03,30,17,35,7.70
2009,03,30,17,36,7.70
2009,03,30,17,37,7.70
2009,03,30,17,38,7.70
2009,03,30,17,39,7.70
2009,03,30,17,40,7.70
2009,03,30,17,41,7.70
2009,03,30,17,42,7.70
2009,03,30,17,43,7.70
2009,03,30,17,44,7.70
2009,03,30,17,45,7.70
2009,03,30,17,46,7.70
2009,03,30,17,47,7.70
2009,03,30,17,48,7.70
2009,03,30,17,49,7.60
2009,03,30,17,50,7.60
2009,03,30,17,51,7.60
2009,03,30,17,52,7.60
2009,03,30,17,53,7.60
2009,03,30,17,54,7.60
2009,03,30,17,55,7.60
2009,03,30,17,56,7.60
2009,03,30,17,57,7.60
2009,03,30,17,58,7.60
2009,03,30,17,59,7.60
2009,03,30,18,00,7.60
2009,03,30,18,01,7.60
2009,03,30,18,02,7.60
2009,03,30,18,03,7.60
2009,03,30,18,04,7.60
2009,03,30,18,05,7.60
2009,03,30,18,06,7.60
2009,03,30,18,07,7.60
2009,03,30,18,08,7.60
2009,03,30,18,09,7.50
2009,03,30,18,10,7.50
2009,03,30,18,11,7.50
2009,03,30,18,12,7.50
2009,03,30,18,13,7.50
2009,03,30,18,14,7.50
2009,03,30,18,15,7.50
2009,03,30,18,16,7.50
2009,03,30,18,17,7.50
2009,03,30,18,18,7.40
2009,03,30,18,19,7.40
2009,03,30,18,20,7.40
2009,03,30,18,21,7.40
2009,03,30,18,22,7.40
2009,03,30,18,23,7.40
2009,03,30,18,24,7.40
2009,03,30,18,25,7.40
2009,03,30,18,26,7.40
2009,03,30,18,27,7.40
2009,03,30,18,28,7.40
2009,03,30,18,29,7.40
2009,03,30,18,30,7.40
2009,03,30,18,31,7.40
2009,03,30,18,32,7.40
2009,03,30,18,33,7.40
2009,03,30,18,34,7.40
2009,03,30,18,35,7.40
2009,03,30,18,36,7.40
2009,03,30,18,37,7.40
2009,03,30,18,38,7.40
2009,03,30,18,39,7.40
2009,03,30,18,40,7.40
2009,03,30,18,41,7.40
2009,03,30,18,42,7.40
2009,03,30,18,43,7.40
2009,03,30,18,44,7.40
2009,03,30,18,45,7.40
2009,03,30,18,46,7.40
2009,03,30,18,47,7.40
2009,03,30,18,48,7.40
2009,03,30,18,49,7.40
2009,03,30,18,50,7.40
2009,03,30,18,51,7.30
2009,03,30,18,52,7.30
2009,03,30,18,53,7.30
2009,03,30,18,54,7.30
2009,03,30,18,55,7.30
2009,03,30,18,56,7.30
2009,03,30,18,57,7.30
2009,03,30,18,58,7.30
2009,03,30,18,59,7.30
2009,03,30,19,00,7.30
2009,03,30,19,01,7.20
2009,03,30,19,02,7.20
2009,03,30,19,03,7.20
2009,03,30,19,04,7.20
2009,03,30,19,05,7.20
2009,03,30,19,06,7.20
2009,03,30,19,07,7.20
2009,03,30,19,08,7.20
2009,03,30,19,09,7.20
2009,03,30,19,10,7.20
2009,03,30,19,11,7.20
2009,03,30,19,12,7.20
2009,03,30,19,13,7.20
2009,03,30,19,14,7.20
2009,03,30,19,15,7.10
2009,03,30,19,16,7.10
2009,03,30,19,17,7.10
2009,03,30,19,18,7.10
2009,03,30,19,19,7.10
2009,03,30,19,20,7.10
2009,03,30,19,21,7.10
2009,03,30,19,22,7.10
2009,03,30,19,23,7.10
2009,03,30,19,24,7.10
2009,03,30,19,25,7.10
2009,03,30,19,26,7.10
2009,03,30,19,27,7.10
2009,03,30,19,28,7.10
2009,03,30,19,29,7.10
2009,03,30,19,30,7.10
2009,03,30,19,31,7.10
2009,03,30,19,32,7.00
2009,03,30,19,33,7.10
2009,03,30,19,34,7.00
2009,03,30,19,35,7.00
2009,03,30,19,36,7.00
2009,03,30,19,37,7.00
2009,03,30,19,38,7.00
2009,03,30,19,39,7.00
2009,03,30,19,40,7.00
2009,03,30,19,41,7.00
2009,03,30,19,42,7.00
2009,03,30,19,43,7.00
2009,03,30,19,44,7.00
2009,03,30,19,45,6.90
2009,03,30,19,46,6.90
2009,03,30,19,47,7.00
2009,03,30,19,48,6.90
2009,03,30,19,49,7.00
2009,03,30,19,50,6.90
2009,03,30,19,51,6.90
2009,03,30,19,52,6.90
2009,03,30,19,53,6.90
2009,03,30,19,54,6.90
2009,03,30,19,55,6.90
2009,03,30,19,56,6.90
2009,03,30,19,57,6.90
2009,03,30,19,58,6.90
2009,03,30,19,59,6.90
2009,03,30,20,00,6.90
2009,03,30,20,01,6.90
2009,03,30,20,02,6.90
2009,03,30,20,03,6.90
2009,03,30,20,04,6.90
2009,03,30,20,05,6.90
2009,03,30,20,06,6.90
2009,03,30,20,07,6.90
2009,03,30,20,08,6.90
2009,03,30,20,09,6.90
2009,03,30,20,10,6.90
2009,03,30,20,11,6.90
2009,03,30,20,12,6.90
2009,03,30,20,13,6.90
2009,03,30,20,14,6.90
2009,03,30,20,15,6.90
2009,03,30,20,16,6.90
2009,03,30,20,17,6.90
2009,03,30,20,18,6.90
2009,03,30,20,19,6.90
2009,03,30,20,20,6.90
2009,03,30,20,21,6.90
2009,03,30,20,22,6.90
2009,03,30,20,23,6.90
2009,03,30,20,24,6.90
2009,03,30,20,25,6.90
2009,03,30,20,26,6.90
2009,03,30,20,27,6.90
2009,03,30,20,28,6.90
2009,03,30,20,29,6.90
2009,03,30,20,30,6.90
2009,03,30,20,31,6.90
2009,03,30,20,32,6.90
2009,03,30,20,33,6.90
2009,03,30,20,34,6.90
2009,03,30,20,35,6.90
2009,03,30,20,36,6.90
2009,03,30,20,37,6.90
2009,03,30,20,38,6.90
2009,03,30,20,39,6.90
2009,03,30,20,40,6.90
2009,03,30,20,41,6.90
2009,03,30,20,42,6.90
2009,03,30,20,43,6.90
2009,03,30,20,44,6.90
2009,03,30,20,45,6.90
2009,03,30,20,46,6.90
2009,03,30,20,47,6.90
2009,03,30,20,48,6.90
2009,03,30,20,49,6.90
2009,03,30,20,50,6.90
2009,03,30,20,51,7.00
2009,03,30,20,52,7.00
2009,03,30,20,53,7.00
2009,03,30,20,54,7.00
2009,03,30,20,55,7.00
2009,03,30,20,56,7.00
2009,03,30,20,57,7.00
2009,03,30,20,58,7.00
2009,03,30,20,59,7.00
2009,03,30,21,00,7.00
2009,03,30,21,01,6.90
2009,03,30,21,02,6.90
2009,03,30,21,03,6.90
2009,03,30,21,04,6.90
2009,03,30,21,05,6.90
2009,03,30,21,06,6.90
2009,03,30,21,07,6.90
2009,03,30,21,08,6.90
2009,03,30,21,09,6.90
2009,03,30,21,10,6.90
2009,03,30,21,11,6.90
2009,03,30,21,12,6.90
2009,03,30,21,13,6.90
2009,03,30,21,14,6.90
2009,03,30,21,15,6.90
2009,03,30,21,16,6.90
2009,03,30,21,17,6.90
2009,03,30,21,18,6.90
2009,03,30,21,19,6.90
2009,03,30,21,20,6.90
2009,03,30,21,21,6.80
2009,03,30,21,22,6.90
2009,03,30,21,23,6.90
2009,03,30,21,24,6.90
2009,03,30,21,25,6.90
2009,03,30,21,26,6.90
2009,03,30,21,27,6.90
2009,03,30,21,28,6.90
2009,03,30,21,29,6.90
2009,03,30,21,30,6.90
2009,03,30,21,31,6.90
2009,03,30,21,32,6.90
2009,03,30,21,33,6.80
2009,03,30,21,34,6.80
2009,03,30,21,35,6.80
2009,03,30,21,36,6.80
2009,03,30,21,37,6.80
2009,03,30,21,38,6.80
2009,03,30,21,39,6.80
2009,03,30,21,40,6.80
2009,03,30,21,41,6.80
2009,03,30,21,42,6.80
2009,03,30,21,43,6.80
2009,03,30,21,44,6.80
2009,03,30,21,45,6.80
2009,03,30,21,46,6.80
2009,03,30,21,47,6.80
2009,03,30,21,48,6.80
2009,03,30,21,49,6.80
2009,03,30,21,50,6.80
2009,03,30,21,51,6.80
2009,03,30,21,52,6.80
2009,03,30,21,53,6.80
2009,03,30,21,54,6.80
2009,03,30,21,55,6.80
2009,03,30,21,56,6.80
2009,03,30,21,57,6.80
2009,03,30,21,58,6.80
2009,03,30,21,59,6.80
2009,03,30,22,00,6.80
2009,03,30,22,01,6.80
2009,03,30,22,02,6.80
2009,03,30,22,03,6.80
2009,03,30,22,04,6.80
2009,03,30,22,05,6.80
2009,03,30,22,06,6.70
2009,03,30,22,07,6.70
2009,03,30,22,08,6.70
2009,03,30,22,09,6.70
2009,03,30,22,10,6.70
2009,03,30,22,11,6.70
2009,03,30,22,12,6.70
2009,03,30,22,13,6.70
2009,03,30,22,14,6.70
2009,03,30,22,15,6.70
2009,03,30,22,16,6.70
2009,03,30,22,17,6.70
2009,03,30,22,18,6.70
2009,03,30,22,19,6.70
2009,03,30,22,20,6.70
2009,03,30,22,21,6.70
2009,03,30,22,22,6.70
2009,03,30,22,23,6.70
2009,03,30,22,24,6.70
2009,03,30,22,25,6.70
2009,03,30,22,26,6.70
2009,03,30,22,27,6.70
2009,03,30,22,28,6.70
2009,03,30,22,29,6.70
2009,03,30,22,30,6.70
2009,03,30,22,31,6.70
2009,03,30,22,32,6.70
2009,03,30,22,33,6.70
2009,03,30,22,34,6.70
2009,03,30,22,35,6.70
2009,03,30,22,36,6.70
2009,03,30,22,37,6.70
2009,03,30,22,38,6.70
2009,03,30,22,39,6.70
2009,03,30,22,40,6.70
2009,03,30,22,41,6.70
2009,03,30,22,42,6.70
2009,03,30,22,43,6.70
2009,03,30,22,44,6.70
2009,03,30,22,45,6.70
2009,03,30,22,46,6.70
2009,03,30,22,47,6.70
2009,03,30,22,48,6.70
2009,03,30,22,49,6.70
2009,03,30,22,50,6.70
2009,03,30,22,51,6.70
2009,03,30,22,52,6.70
2009,03,30,22,53,6.70
2009,03,30,22,54,6.70
2009,03,30,22,55,6.70
2009,03,30,22,56,6.70
2009,03,30,22,57,6.70
2009,03,30,22,58,6.80
2009,03,30,22,59,6.80
2009,03,30,23,00,6.80
2009,03,30,23,01,6.80
2009,03,30,23,02,6.80
2009,03,30,23,03,6.80
2009,03,30,23,04,6.80
2009,03,30,23,05,6.80
2009,03,30,23,06,6.80
2009,03,30,23,07,6.80
2009,03,30,23,08,6.80
2009,03,30,23,09,6.80
2009,03,30,23,10,6.90
2009,03,30,23,11,6.90
2009,03,30,23,12,6.90
2009,03,30,23,13,6.90
2009,03,30,23,14,6.90
2009,03,30,23,15,6.90
2009,03,30,23,16,6.90
2009,03,30,23,17,6.90
2009,03,30,23,18,7.00
2009,03,30,23,19,7.00
2009,03,30,23,20,7.00
2009,03,30,23,21,7.00
2009,03,30,23,22,7.10
2009,03,30,23,23,7.10
2009,03,30,23,24,7.10
2009,03,30,23,25,7.10
2009,03,30,23,26,7.10
2009,03,30,23,27,7.10
2009,03,30,23,28,7.10
2009,03,30,23,29,7.20
2009,03,30,23,30,7.20
2009,03,30,23,31,7.20
2009,03,30,23,32,7.20
2009,03,30,23,33,7.20
2009,03,30,23,34,7.20
2009,03,30,23,35,7.20
2009,03,30,23,36,7.20
2009,03,30,23,37,7.20
2009,03,30,23,38,7.20
2009,03,30,23,39,7.20
2009,03,30,23,40,7.20
2009,03,30,23,41,7.20
2009,03,30,23,42,7.20
2009,03,30,23,43,7.20
2009,03,30,23,44,7.30
2009,03,30,23,45,7.30
2009,03,30,23,46,7.30
2009,03,30,23,47,7.30
2009,03,30,23,48,7.30
2009,03,30,23,49,7.30
2009,03,30,23,50,7.30
2009,03,30,23,51,7.30
2009,03,30,23,52,7.30
2009,03,30,23,53,7.30
2009,03,30,23,54,7.30
2009,03,30,23,55,7.30
2009,03,30,23,56,7.30
2009,03,30,23,57,7.30
2009,03,30,23,58,7.30
2009,03,30,23,59,7.30
